Location: Newark
(45.4422°N, 16.2769°E)
Time: 08:06:15
(UTC+00:00)

Vanguard 2 - Pass Details

Date: 10 December 2019
Orbit: 553 x 2938 km, 32.9° (Epoch: 18 January)

Event Time Altitude Azimuth Distance (km) Brightness Sun altitude
Rises 21:36:35 0° 187° (S) 5,364 - -63.3°
Reaches altitude 10° 21:41:38 10° 169° (S) 4,790 - -63.8°
Maximum altitude 21:49:47 18° 133° (SE) 4,692 - -64.6°
Drops below altitude 10° 21:59:13 10° 100° (E) 5,690 - -65.4°
Exits shadow 22:05:44 - 85° (E) 6,738 12.2 -65.9°
Sets 22:06:05 0° 84° (E) 6,796 12.3 -66.0°
